When you browse on this site, cookies collect data to enhance your experience and personalize the content and advertising you see.
Visit our Privacy Policy to learn more. By continuing to use the site, you agree to this use of cookies and data.
  • In Germany
  • List of Countries
  • For 7 days
  • Water Temperature
  • Weather Map
  • Weather Widgets
  • user-avatar
    Login

    Hourly Weather Perth

    Today, 16 September, Monday

    Time Temperature Precipitation Wind Pressure Humidity
    00:00 +15°C° 0 mm 5 mps 765 mmHg 78%
    01:00 +15°C° 0 mm 5 mps 765 mmHg 80%
    02:00 +15°C° 0 mm 6 mps 765 mmHg 82%
    03:00 +15°C° 0 mm 6 mps 764 mmHg 82%
    04:00 +14°C° 0 mm 6 mps 764 mmHg 81%
    05:00 +14°C° 0 mm 6 mps 764 mmHg 80%
    06:00 +15°C° 0 mm 6 mps 764 mmHg 77%
    07:00 +16°C° 0 mm 6 mps 764 mmHg 75%
    08:00 +16°C° 0 mm 6 mps 764 mmHg 72%
    09:00 +19°C° 0 mm 5 mps 764 mmHg 69%
    10:00 +20°C° 0 mm 5 mps 764 mmHg 66%
    11:00 +22°C° 0 mm 4 mps 764 mmHg 63%
    12:00 +23°C° 0 mm 4 mps 763 mmHg 61%
    13:00 +25°C° 0 mm 3 mps 762 mmHg 58%
    14:00 +26°C° 0 mm 3 mps 762 mmHg 56%
    15:00 +25°C° 0 mm 2 mps 761 mmHg 59%
    16:00 +25°C° 0 mm 2 mps 761 mmHg 62%
    17:00 +24°C° 0 mm 2 mps 761 mmHg 65%
    18:00 +23°C° 0 mm 2 mps 761 mmHg 70%
    19:00 +21°C° 0 mm 2 mps 762 mmHg 75%
    20:00 +19°C° 0 mm 2 mps 762 mmHg 80%
    21:00 +19°C° 0 mm 2 mps 762 mmHg 82%
    22:00 +19°C° 0 mm 1 mps 761 mmHg 84%
    23:00 +19°C° 0 mm 1 mps 761 mmHg 85%

    Tomorrow, 17 September, Tuesday

    Time Temperature Precipitation Wind Pressure Humidity
    00:00 +19°C° 0 mm 1 mps 761 mmHg 86%
    01:00 +18°C° 0 mm 1 mps 761 mmHg 87%
    02:00 +18°C° 0 mm 1 mps 760 mmHg 89%
    03:00 +16°C° 0 mm 1 mps 760 mmHg 89%
    04:00 +16°C° 0 mm 1 mps 760 mmHg 90%
    05:00 +16°C° 0 mm 1 mps 760 mmHg 90%
    06:00 +18°C° 0 mm 1 mps 760 mmHg 89%
    07:00 +18°C° 0 mm 1 mps 761 mmHg 87%
    08:00 +18°C° 0 mm 2 mps 761 mmHg 86%
    09:00 +19°C° 0 mm 2 mps 761 mmHg 81%
    10:00 +20°C° 0 mm 3 mps 761 mmHg 76%
    11:00 +20°C° 0 mm 3 mps 761 mmHg 71%
    12:00 +21°C° 0 mm 3 mps 760 mmHg 69%
    13:00 +21°C° 0 mm 4 mps 760 mmHg 67%
    14:00 +21°C° 0 mm 4 mps 759 mmHg 65%
    15:00 +21°C° 0 mm 4 mps 760 mmHg 68%
    16:00 +20°C° 0 mm 4 mps 760 mmHg 71%
    17:00 +20°C° 0 mm 4 mps 760 mmHg 73%
    18:00 +19°C° 0 mm 4 mps 761 mmHg 77%
    19:00 +18°C° 0 mm 3 mps 761 mmHg 81%
    20:00 +17°C° 0 mm 2 mps 762 mmHg 85%
    21:00 +16°C° 0 mm 2 mps 762 mmHg 84%
    22:00 +16°C° 0 mm 2 mps 762 mmHg 83%
    23:00 +16°C° 0 mm 1 mps 761 mmHg 83%

    Day after tomorrow, 18 September, Wednesday

    Time Temperature Precipitation Wind Pressure Humidity
    00:00 +15°C° 0 mm 2 mps 761 mmHg 83%
    01:00 +15°C° 0 mm 2 mps 761 mmHg 84%
    02:00 +15°C° 0 mm 2 mps 761 mmHg 85%
    03:00 +15°C° 0 mm 2 mps 760 mmHg 86%
    04:00 +15°C° 0 mm 2 mps 760 mmHg 87%
    05:00 +15°C° 0 mm 2 mps 760 mmHg 87%
    06:00 +14°C° 0.1 mm 3 mps 760 mmHg 86%
    07:00 +15°C° 0.1 mm 4 mps 760 mmHg 85%
    08:00 +17°C° 0.1 mm 4 mps 760 mmHg 83%
    09:00 +17°C° 0.1 mm 5 mps 759 mmHg 78%
    10:00 +19°C° 0.1 mm 6 mps 759 mmHg 72%
    11:00 +20°C° 0.1 mm 7 mps 759 mmHg 66%
    12:00 +20°C° 0.1 mm 7 mps 759 mmHg 68%
    13:00 +18°C° 0.1 mm 8 mps 758 mmHg 69%
    14:00 +18°C° 0.1 mm 8 mps 758 mmHg 70%
    15:00 +18°C° 0.1 mm 8 mps 758 mmHg 72%
    16:00 +17°C° 0.1 mm 8 mps 758 mmHg 74%
    17:00 +17°C° 0.1 mm 8 mps 758 mmHg 76%
    18:00 +16°C° 0.5 mm 8 mps 758 mmHg 77%
    19:00 +16°C° 0.5 mm 7 mps 759 mmHg 79%
    20:00 +16°C° 0.5 mm 7 mps 759 mmHg 80%
    21:00 +15°C° 0.5 mm 8 mps 759 mmHg 76%
    22:00 +15°C° 0.5 mm 8 mps 760 mmHg 72%
    23:00 +13°C° 0.5 mm 8 mps 760 mmHg 69%

    19 September, Thursday

    Time Temperature Precipitation Wind Pressure Humidity
    00:00 +13°C° 0.1 mm 8 mps 760 mmHg 69%
    01:00 +12°C° 0.1 mm 7 mps 760 mmHg 69%
    02:00 +11°C° 0.1 mm 7 mps 761 mmHg 69%
    03:00 +11°C° 0.1 mm 7 mps 761 mmHg 68%
    04:00 +11°C° 0.1 mm 7 mps 761 mmHg 67%
    05:00 +10°C° 0.1 mm 7 mps 762 mmHg 66%
    06:00 +10°C° 0.1 mm 6 mps 763 mmHg 65%
    07:00 +10°C° 0.1 mm 6 mps 763 mmHg 65%
    08:00 +10°C° 0.1 mm 6 mps 764 mmHg 64%
    09:00 +11°C° 0 mm 6 mps 764 mmHg 61%
    10:00 +12°C° 0 mm 5 mps 765 mmHg 58%
    11:00 +13°C° 0 mm 5 mps 765 mmHg 55%
    12:00 +13°C° 0 mm 5 mps 765 mmHg 52%
    13:00 +14°C° 0 mm 5 mps 765 mmHg 50%
    14:00 +14°C° 0 mm 6 mps 765 mmHg 48%
    15:00 +14°C° 0 mm 5 mps 765 mmHg 50%
    16:00 +13°C° 0 mm 5 mps 765 mmHg 52%
    17:00 +13°C° 0 mm 5 mps 766 mmHg 54%
    18:00 +12°C° 0 mm 5 mps 766 mmHg 56%
    19:00 +10°C° 0 mm 5 mps 767 mmHg 58%
    20:00 +10°C° 0 mm 4 mps 768 mmHg 60%
    21:00 +10°C° 0 mm 4 mps 768 mmHg 62%
    22:00 +8°C° 0 mm 4 mps 768 mmHg 63%
    23:00 +9°C° 0 mm 3 mps 768 mmHg 65%

    20 September, Friday

    Time Temperature Precipitation Wind Pressure Humidity
    00:00 +8°C° 0 mm 3 mps 768 mmHg 67%
    01:00 +8°C° 0 mm 3 mps 768 mmHg 68%
    02:00 +7°C° 0 mm 2 mps 769 mmHg 70%
    03:00 +7°C° 0 mm 2 mps 769 mmHg 71%
    04:00 +7°C° 0 mm 2 mps 769 mmHg 73%
    05:00 +6°C° 0 mm 2 mps 769 mmHg 74%
    06:00 +7°C° 0 mm 2 mps 769 mmHg 69%
    07:00 +8°C° 0 mm 2 mps 769 mmHg 64%
    08:00 +10°C° 0 mm 2 mps 770 mmHg 60%
    09:00 +12°C° 0 mm 2 mps 769 mmHg 54%
    10:00 +14°C° 0 mm 2 mps 769 mmHg 48%
    11:00 +16°C° 0 mm 3 mps 769 mmHg 42%
    12:00 +16°C° 0 mm 3 mps 769 mmHg 42%
    13:00 +17°C° 0 mm 3 mps 768 mmHg 42%
    14:00 +18°C° 0 mm 3 mps 768 mmHg 42%
    15:00 +17°C° 0 mm 3 mps 768 mmHg 46%
    16:00 +15°C° 0 mm 4 mps 768 mmHg 50%
    17:00 +15°C° 0 mm 4 mps 768 mmHg 55%
    18:00 +14°C° 0 mm 3 mps 768 mmHg 57%
    19:00 +13°C° 0 mm 3 mps 769 mmHg 59%
    20:00 +12°C° 0 mm 3 mps 770 mmHg 61%
    21:00 +11°C° 0 mm 3 mps 769 mmHg 63%
    22:00 +11°C° 0 mm 3 mps 769 mmHg 65%
    23:00 +10°C° 0 mm 3 mps 769 mmHg 67%

    21 September, Saturday

    Time Temperature Precipitation Wind Pressure Humidity
    00:00 +10°C° 0 mm 3 mps 769 mmHg 70%
    01:00 +8°C° 0 mm 4 mps 769 mmHg 73%
    02:00 +8°C° 0 mm 4 mps 769 mmHg 76%
    03:00 +8°C° 0 mm 4 mps 770 mmHg 76%
    04:00 +8°C° 0 mm 5 mps 770 mmHg 76%
    05:00 +8°C° 0 mm 5 mps 770 mmHg 77%
    06:00 +8°C° 0 mm 5 mps 770 mmHg 74%
    07:00 +9°C° 0 mm 5 mps 771 mmHg 70%
    08:00 +10°C° 0 mm 5 mps 771 mmHg 67%
    09:00 +12°C° 0 mm 5 mps 771 mmHg 61%
    10:00 +14°C° 0 mm 5 mps 771 mmHg 54%
    11:00 +17°C° 0 mm 4 mps 771 mmHg 47%
    12:00 +17°C° 0 mm 4 mps 770 mmHg 45%
    13:00 +18°C° 0 mm 3 mps 770 mmHg 43%
    14:00 +19°C° 0 mm 3 mps 769 mmHg 41%
    15:00 +19°C° 0 mm 3 mps 769 mmHg 43%
    16:00 +18°C° 0 mm 3 mps 769 mmHg 46%
    17:00 +18°C° 0 mm 3 mps 770 mmHg 49%
    18:00 +15°C° 0 mm 4 mps 770 mmHg 52%
    19:00 +14°C° 0 mm 4 mps 771 mmHg 56%
    20:00 +12°C° 0 mm 5 mps 771 mmHg 60%
    21:00 +12°C° 0 mm 5 mps 771 mmHg 59%
    22:00 +12°C° 0 mm 5 mps 771 mmHg 59%
    23:00 +10°C° 0 mm 5 mps 772 mmHg 59%
    Show more